Regional Weather Roundup
Issued by NWS

Home | Current Version | Previous Version | Text Only | Print | Product List | Glossary On
Versions: 1 2 3 4 5 6 7 8 9 10 11 12 13 14 15 16 17 18 19 20 21 22 23 24 25 26 27 28 29 30 31 32 33 34 35 36 37 38 39 40 41 42 43 44 45 46 47 48 49 50
000
ASHW40 PHFO 180143
RWRHI

WEATHER ROUNDUP FOR HAWAII
NATIONAL WEATHER SERVICE HONOLULU HI
300 PM HST SAT FEB 17 2018

THIS IS AN AUTOMATED REPORT THAT HAS NOT BEEN QUALITY CONTROLLED.

NOTE..."FAIR" INDICATES FEW OR NO CLOUDS BELOW 12,000 FEET WITH NO
SIGNIFICANT WEATHER AND/OR OBSTRUCTIONS TO VISIBILITY.

* - THESE SITES REPORT LIMITED FIELDS
# - BUOY DATA PROVIDED BY PACIFIC ISLANDS OCEAN OBSERVING SYSTEM.

HIZ001>004-180200-
KAUAI-NIIHAU-

CITY           SKY/WX    TMP DP  RH WIND       PRES   REMARKS
LIHUE APT      SUNNY     77  66  68 NE12      29.96F
PORT ALLEN*      N/A     77 N/A N/A SW5G13      N/A
POIPU*           N/A     77 N/A N/A NE9G18      N/A
PRINCEVILLE*     N/A     72 N/A N/A NE6G13      N/A
KOKOLE POINT*  NOT AVBL
MOLOAA DAIRY*    N/A     75  66  73 NE3         N/A
WAIMEA HTS*      N/A     79  61  53 SW6G12      N/A
PUU OPAE*        N/A     66  54  63 S3G10       N/A
PUU LUA*       NOT AVBL
MAKAHA RIDGE*    N/A     72  63  73 NE3         N/A
$$

HIZ005>011-180200-
OAHU-

CITY           SKY/WX    TMP DP  RH WIND       PRES   REMARKS
HONOLULU       CLOUDY    80  66  62 SW10      29.92F
KALAELOA       PTSUNNY   78  64  61 SW6       29.94S
KANEOHE MCB    LGT RAIN N/A N/A N/A MISG        N/A
WHEELER FIELD  CLOUDY    76  66  71 S6        29.96S
BELLOWS*         N/A    N/A N/A N/A N3          N/A
KAHUKU*          N/A    N/A N/A N/A NE5         N/A
WHEELER*         N/A    N/A N/A N/A S10         N/A
WAIANAE HARBOR   N/A    N/A N/A N/A W9          N/A
DILLINGHAM*    NOT AVBL
KAHUKU TRN*      N/A     72  68  88 W5G12       N/A
KAWAILOA*        N/A     72  66  83 NE5G13      N/A
KII*             N/A     75  68  78 NE9         N/A
MAKUA RANGE*     N/A     79  68  69 E5G12       N/A
OAHU FOREST NW   N/A     75  63  64 SW6G15      N/A
SCHOFIELD BRK*   N/A     79  64  61 MISG        N/A
SCHOFIELD S*   NOT AVBL
WAIANAE VLY*     N/A     82  68  61 SE3G12      N/A
KUAOKALA*        N/A     70  66  88 N9          N/A
HONOULIUULI*   NOT AVBL
MOKUOLOE IS*   NOT AVBL
PALEHUA*         N/A     72  61  68 SE3G9       N/A
WAIAWA PHB*    NOT AVBL
$$

HIZ012>013-180200-
MOLOKAI-

CITY           SKY/WX    TMP DP  RH WIND       PRES   REMARKS
MOLOKAI AIRPT  PTSUNNY   77  70  79 N8        29.94S
KALAUPAPA      NOT AVBL
MAKAPULAPAI*     N/A     73  70  88 NE7         N/A
MOLOKAI 1*       N/A     75  72  88 SE1         N/A
PUU ALII*        N/A     79  73  83 SW1G7       N/A
$$

HIZ016-180200-
KAHOOLAWE-

CITY           SKY/WX    TMP DP  RH WIND       PRES   REMARKS
KAHOOLAWE*     NOT AVBL
HAKIOAWA*        N/A     69  67  94 MISG      30.31F
HONOKANAIA*    NOT AVBL
KANELOA*         N/A     73  68  83 SW6G15      N/A
KEALIALALO*    NOT AVBL
LUA MAKIKA*    NOT AVBL
$$

HIZ014>015-180200-
LANAI-

CITY           SKY/WX    TMP DP  RH WIND       PRES   REMARKS
LANAI CITY     FAIR      70  66  88 CALM      29.97F
LANAI 1*         N/A     70  66  88 S6G18       N/A
$$

HIZ017>028-180200-
MAUI-

CITY           SKY/WX    TMP DP  RH WIND       PRES   REMARKS
KAHULUI        CLOUDY    75  70  84 NE8       29.93R
KAPALUA-W MAUI PTSUNNY   73  70  88 NE7       29.95
HANA AIRPORT   SUNNY     73  32  21 MISG      29.95S
HANA*            N/A     75 N/A N/A NE6         N/A
HALEAKALA SUMM   N/A     41  41 100 SE14        N/A
MAALAEA BAY*     N/A     75 N/A N/A N6          N/A
HALEAKALA*     NOT AVBL
KAUPO GAP*     NOT AVBL
KULA 1*          N/A     55  53  94 W3          N/A
$$

HIZ023>026-180200-
BIG ISLAND OF HAWAII COAST AND LOWER SLOPES-

CITY           SKY/WX    TMP DP  RH WIND       PRES   REMARKS
KAILUA KONA    PTSUNNY   82  68  62 NW20      29.88S
HILO           CLOUDY    78  64  61 CALM      29.88S
HONOKAA*         N/A     77 N/A N/A VRB1        N/A
KAWAIHAE MWT*    N/A     81 N/A N/A W5          N/A
KAWAIHAE*        N/A     75 N/A N/A W10       29.91S
SOUTH POINT*     N/A     79 N/A N/A N13G18      N/A
UPOLU AIRPORT* NOT AVBL
KAMUELA*       CLOUDY    72  63  73 W6        30.02F
HAKALAU*         N/A     63  50  63 SE3G9       N/A
KALOKO-HONOKO*   N/A     82  70  65 NW15G25   29.87F
PALI 2*          N/A    N/A N/A N/A SE9         N/A
KEALAKOMO*       N/A     81  64  57 W12G21      N/A
KAUPULEHU*       N/A     75  66  73 N9G15       N/A
KAPAPALA*        N/A     76  64  65 N7          N/A
LOWER KAHUKU*    N/A     66  57  72 SE2G8       N/A
PUHE CS*         N/A     79  66  65 SW2         N/A
PUHO CS*         N/A     77  70  78 NW1         N/A
PTA KEAMUKU*     N/A     64  61  88 W6G13       N/A
WAIKOLOA*        N/A     79  64  61 NW8         N/A
$$

HIZ027>028-180200-
BIG ISLAND OF HAWAII INTERIOR AND SUMMMITS-

CITY           SKY/WX    TMP DP  RH WIND       PRES   REMARKS
BRADSHAW FIELD CLOUDY    68  51  55 W9        30.22S
MK VISITOR CEN   N/A     46  39  76 SE2         N/A
MAUNA KEA*       N/A     28  27  93 W6          N/A  WCI  22
MAUNA LOA*       N/A    N/A N/A N/A MISG        N/A
MAUNA LOA 1*   NOT AVBL
PTA KIPUKA*      N/A     63  52  67 SE3G10      N/A
PTA RANGE 17*    N/A     57  48  72 E6G13       N/A
PTA WEST*        N/A     64  57  77 N7          N/A
NENE CABIN*      N/A     63  46  55 NW8G17      N/A
AHUMOA*          N/A     65  54  67 SW5G14      N/A
PTA PORTABLE*  NOT AVBL
PUU MALI*        N/A     57 N/A N/A W3G14       N/A
$$

HIC003-180200-
NORTHWEST ISLANDS-

CITY           SKY/WX    TMP DP  RH WIND       PRES   REMARKS
MIDWAY ISLAND  CLOUDY    70  59  68 SE15      30.05F
MIDWAY NOS*      N/A     70 N/A N/A MISG      30.02F
FRENCH FRIGATE NOT AVBL
$$

PHZ110>124-180-180200-
BUOY REPORTS

STATION/POSITION TIME  TEMP    WIND        PRES    WAVE   SWELL
                       AIR SEA DIR/SP/G            HT/PER HT/DIR
                 (UTC) (F)     (DEG/KT/KT) (MB)    (FT/S) (FT/D)
BUOY 51001       0120   77 78   50/ 12/ 14 1012.0
BUOY 51101       0050   68 74   10/ 14/ 16 1016.2F   7/12   7/330
BUOY 51100       NOT AVBL
BUOY 51002       0120   73 77   80/ 16/ 17 1011.7
BUOY 51003       0050   74 77   20/ 12/ 16 1012.9F   5/12   5/330
BUOY 51004       0120   77 78   80/  8/ 12 1012.9
WAIMEA BAY#      0102      73                N/A     5/12   3/320
MOKAPU POINT#    0104      75                N/A     5/ 8   2/ 20
LANAI#           NOT AVBL
BARBERS PT 2#    NOT AVBL
PAUWELA#         0100      76                N/A     6/ 9   3/340
HILO#            0127      76                N/A     5/ 9   2/ 60
KANEOHE BAY#     NOT AVBL
KANEOHE BAY 2#   NOT AVBL
HANALEI#         0122      76                N/A     6/13   3/320
KAHULUI HARBOR   0112   74 78   30/  7/  9 1013.0
HONOLULU HARBOR  0112   78 75  200/  6/  7 1012.6
PEARL HARBOR#    0100      76                N/A     2/ 8
KILO NALU        NOT AVBL
HILO HARBOR      0112   76 75   10/  6/  7 1011.2
MOKUOLOE         0036   74 76  110/  2/  4 1013.5F
NAWILIWILI       0112   74 76   40/  7/  9 1013.9
WHOTS BUOY       NOT AVBL
BUOY 51028       NOT AVBL
$$

......................KEY........................................
  SKY/WX - SKY CONDITIONS/PRESENT WEATHER
  TMP    - TEMPERATURE IN FAHRENHEIT
  DWPT   - DEWPOINT IN FAHRENHEIT
  RH     - RELATIVE HUMIDITY IN PERCENT
  WIND   - DIRECTION AND SPEED /MPH FOR ISLANDS...KTS FOR BUOYS/
  PRES   - MEAN SEA LEVEL PRESSURE IN INCHES OF HG
  VSB    - VISIBILITY IN MILES
  HX     - HEAT INDEX
  WCI    - WIND CHILL INDEX
  VRB    - VARIABLE WIND DIRECTION
  N/A    - NOT AVAILABLE




USA.gov is the U.S. government's official web portal to all federal, state and local government web resources and services.